Flag for Finland Weather past 2 weeks in Kemi, Finland

Now
43 °F

Overcast.


Feels Like: 36 °F
Forecast: 43 / 58 °F
Wind: 13 mph from South

Location: Kemi Airport

Current Time: May 28, 2015 at 1:44:52 PM

Latest Report: May 28, 2015 at 12:50 PM


Visibility: 4 mi

Pressure: 29.56 "Hg

Humidity: 93%

Dew point: 41 °F

Location of KemiLocation

Historic Weather in Kemi — Graph

°F

Kemi temperature yesterday

Maximum temperature yesterday: 54 °F (at 11:20 AM)
Minimum temperature yesterday: 45 °F (at 3:50 PM)
Average temperature yesterday: 48 °F

Past Weeks' High & Low Weather Summary

 TemperatureHumidityPressure
High59 °F (May 26, 4:50 PM)100% (May 13, 7:20 PM)29.95 "Hg (May 13, 7:20 PM)
Low30 °F (May 18, 3:20 AM)41% (May 18, 3:20 PM)29.18 "Hg (May 23, 4:20 PM)
Average44 °F81%29.69 "Hg
* Reported May 13 12:20 PM — May 28 12:50 PM, Kemi, Weather by CustomWeather, © 2015

Note: Actual official high and low records may vary slightly from our data, if they occured in-between our weather recording intervals... More about our weather records

Advertising

Kemi weather history for previous 24 hours

 ConditionsComfort  
Time TempWeatherWind HumidityBarometerVisibility
12:50 PM
Thu, May 28
43 °FOvercast.13 mph93%29.56 "Hg4 mi
12:20 PM45 °FOvercast.14 mph81%29.56 "HgN/A
11:50 AM45 °FOvercast.14 mph81%29.56 "HgN/A
11:20 AM45 °FOvercast.13 mph87%29.56 "HgN/A
10:50 AM45 °FOvercast.10 mph87%29.56 "HgN/A
10:20 AM45 °FOvercast.12 mph81%29.56 "HgN/A
9:50 AM45 °FOvercast.10 mph81%29.56 "HgN/A
9:20 AM45 °FOvercast.12 mph81%29.53 "HgN/A
8:50 AM45 °FOvercast.13 mph81%29.53 "HgN/A
8:20 AM45 °FOvercast.12 mph81%29.56 "HgN/A
7:50 AM45 °FOvercast.12 mph87%29.56 "HgN/A
7:20 AM45 °FOvercast.14 mph87%29.56 "HgN/A
6:50 AM45 °FOvercast.13 mph81%29.53 "HgN/A
6:20 AM45 °FOvercast.12 mph87%29.53 "HgN/A
5:50 AM45 °FOvercast.14 mph87%29.53 "HgN/A
5:20 AM45 °FOvercast.13 mph87%29.53 "HgN/A
4:50 AM45 °FOvercast.12 mph87%29.53 "HgN/A
4:20 AM45 °FOvercast.13 mph87%29.53 "HgN/A
3:50 AM45 °FOvercast.13 mph87%29.56 "HgN/A
3:20 AM45 °FOvercast.13 mph87%29.56 "HgN/A
2:50 AM45 °FOvercast.13 mph87%29.56 "HgN/A
2:20 AM45 °FOvercast.9 mph87%29.56 "HgN/A
1:50 AM45 °FOvercast.12 mph87%29.56 "HgN/A
1:20 AM45 °FOvercast.12 mph87%29.56 "HgN/A
12:50 AM45 °FOvercast.13 mph87%29.56 "HgN/A
11:50 PM
Wed, May 27
45 °FPartly sunny.13 mph93%29.56 "HgN/A
11:20 PM45 °FPartly sunny.15 mph93%29.56 "HgN/A
10:57 PM45 °FBroken clouds.15 mph93%29.56 "HgN/A
10:20 PM45 °FLow clouds.15 mph93%29.56 "HgN/A
9:50 PM45 °FLow clouds.15 mph93%29.56 "HgN/A
9:20 PM45 °FMore clouds than sun.15 mph93%29.56 "HgN/A
8:50 PM45 °FBroken clouds.16 mph93%29.59 "HgN/A
8:20 PM46 °FMore clouds than sun.15 mph87%29.59 "HgN/A
7:50 PM46 °FBroken clouds.17 mph87%29.59 "HgN/A
7:20 PM46 °FPartly sunny.16 mph93%29.59 "HgN/A
6:50 PM46 °FPartly sunny.17 mph93%29.59 "HgN/A
6:20 PM46 °FBroken clouds.20 mph87%29.59 "HgN/A
5:50 PM46 °FPartly sunny.17 mph93%29.59 "HgN/A
5:20 PM46 °FLow clouds.14 mph93%29.59 "HgN/A
4:50 PM45 °FLow clouds.14 mph100%29.59 "HgN/A
4:20 PM45 °FSprinkles. Low clouds.17 mph100%29.59 "HgN/A
3:50 PM45 °FLight rain. Mostly cloudy.17 mph100%29.59 "HgN/A
3:20 PM46 °FLight rain. Mostly cloudy.15 mph93%29.59 "Hg3 mi
2:50 PM50 °FRain. Low clouds.13 mph100%29.56 "Hg3 mi
2:20 PM52 °FSprinkles. Low clouds.9 mph94%29.56 "HgN/A
1:50 PM52 °FHeavy rain. Low clouds.9 mph94%29.56 "Hg4 mi
1:20 PM52 °FRain. Overcast.9 mph94%29.56 "Hg4 mi
Weather by CustomWeather, © 2015

See weather overviewHow to use our weather pages